Regional Weather Roundup
Issued by NWS

Home | Current Version | Previous Version | Graphics & Text | Print | Product List | Glossary On
Versions: 1 2 3 4 5 6 7 8 9 10 11 12 13 14 15 16 17 18 19 20 21 22 23 24 25 26 27 28 29 30 31 32 33 34 35 36 37 38 39 40 41 42 43 44 45 46 47 48 49 50
000
ASUS43 KBIS 172302
RWRND

NORTH DAKOTA REGIONAL WEATHER ROUNDUP
NATIONAL WEATHER SERVICE BISMARCK ND
500 PM CST FRI NOV 17 2017

NOTE: "FAIR" INDICATES FEW OR NO CLOUDS BELOW 12,000 FEET WITH NO
SIGNIFICANT WEATHER AND/OR OBSTRUCTIONS TO VISIBILITY.


NDZ001>003-009>011-017-180000-
NORTHWEST NORTH DAKOTA

CITY           SKY/WX    TMP DP  RH WIND       PRES   REMARKS
WILLISTON      CLOUDY    34  19  54 CALM      29.67R
MINOT          CLOUDY    24  14  65 N3        29.69R
$$

NDZ018>021-031>035-040>046-180000-
SOUTHWEST NORTH DAKOTA

CITY           SKY/WX    TMP DP  RH WIND       PRES   REMARKS
BISMARCK       PTCLDY    35  25  66 NE5       29.70F
DICKINSON      MOCLDY    37  23  56 S5        29.63R
GARRISON         N/A     27  20  75 CALM      29.68S
HETTINGER ARPT MOCLDY    39  30  70 S3        29.67R
$$

NDZ004>008-012>016-024-026-027-054-180000-
NORTHEAST NORTH DAKOTA

CITY           SKY/WX    TMP DP  RH WIND       PRES   REMARKS
GRAND FORKS    MOCLDY    20  15  81 NW6       29.73R WCI  12
GRND FRKS AFB  CLEAR     20  14  79 CALM      29.73R
DEVILS LAKE    CLOUDY    20  15  81 W8        29.72R WCI  10
$$

NDZ022-023-025-028>030-036>039-047>053-180000-
SOUTHEAST NORTH DAKOTA

CITY           SKY/WX    TMP DP  RH WIND       PRES   REMARKS
FARGO          CLOUDY    30  21  69 NW9       29.71R
JAMESTOWN      CLOUDY    26  18  71 NW9       29.71R WCI  17
$$





USA.gov is the U.S. government's official web portal to all federal, state and local government web resources and services.